Volver al catálogo

FENGYUN 1C DEB

ActivoSSO
NORAD 30720·DEBRIS·🇨🇳 China

Lanzado May 10, 1999 desde Taiyuan Satellite Launch Center

Loading…

Próximos Pases (próximas 24 horas)

TLE

ActualizadoSource: Space-Track

Época: Sep 13, 2026, 11:11 UTC

1 30720U 99025ASE 26256.46645789  .00000697  00000-0  28721-3 0  9992
2 30720  99.0453  85.3720 0030252 253.3648 136.2743 14.30002706 13768

Sigue FENGYUN 1C DEB en tiempo real con AllMySat

Download on the App Store